Tracking 19634 objects as of 23-May-2019
HD Live streaming from Space Station
objects crossing your sky now

CAPE 1

Track CAPE 1 now!
10-day predictions
CAPE 1 is classified as:


NORAD ID: 31130
Int'l Code: 2007-012P
Perigee: 643.9 km
Apogee: 780.0 km
Inclination: 98.2 °
Period: 98.9 minutes
Semi major axis: 7082 km
RCS: 0.0406 m2 (small)
Launch date: April 17, 2007
Source: United States (US)
Launch site: TYURATAM MISSILE AND SPACE COMPLEX (TTMTR)

Uplink (MHz):
Downlink (MHz): 435.245
Beacon (MHz):
Mode: 1200bps AFSK
Call sign: K5USL
Status: Inactive

aabbcc
Your satellite tracking list
Your tracking list is empty




NASA's NSSDC Master Catalog

Two Line Element Set (TLE):
1 31130U 07012P   19141.81044987 +.00000108 +00000-0 +33291-4 0  9996
2 31130 098.1615 082.5312 0096070 173.6153 186.6295 14.56415293641669
Source of the keplerian elements: AFSPC